DMSP 5D-2 F11 DEB, 28315

Orbit data source: Space-Track

DMSP 5D-2 F11 DEB, 28315 is space debris in SSO originally from a launch on Thu, 28 Nov 1991 UTC launched from the Air Force Western Test Range (AFWTR). Debris objects in space refer to the collection of defunct objects orbiting the Earth. Examples of debris include non-operational satellites, rocket bodies, and fragments generated from explosions, collisions, or faulty payload assembly.

Loading next visibility...
Identifier
28315, 1991-082AC
Orbit
SSO
Last TLE update
15 hours ago
Origin
Manufacturer
Unknown
Mission
Spacecraft
Bus & Motor
Unknown
Mass
Unknown
Launch date (UTC)
1991-11-28 (34 years ago)
Launch vehicle
Unknown
Launch site
Air Force Western Test Range (AFWTR)
Object type
Payload
Rocket body
Debris
Shape & HBR
Unknown
Radar Cross Section
Small (<0.1 m²)

Expand to show TLE details & history

TLE from 15 hours ago
0 DMSP 5D-2 F11 DEB
1 28315U 91082AC  25210.86342594  .00004211  00000-0  19321-2 0  9996
2 28315  98.7928 307.9633 0108047  74.3261  45.6268 14.18746016 83884
Epoch: 2025-07-29T20:43Z
TLE epoch observation values (Epoch: 2025-07-29T20:43:20.001Z)
Latitude
58.14359°
Longitude
-116.2855°
Altitude
785.327 km
Speed
7.495 km/s
True Right ascension
09h 29m 11s
True Declination
57° 59' 23"
Sunlit
Object was in daylight at epoch
Visualization orbit readout
Latitude
73.05086°
Longitude
19.67963°
Altitude
764.306 km
Speed
7.519 km/s
Apparent Right ascension
14h 42m 12s
Apparent Declination
25° 43' 33"
Sunlit
Object is in daylight
Visualization observer readout
Local Sidereal Time
01:17:43
Azimuth
339.586° N
Elevation
-21.471°
Doppler factor
1
Orbital elements
Apogee altitude
904.607 km
Perigee altitude
748.914 km
Semi-major axis
7,204.898 km
Eccentricity
0.0108
Inclination
98.7928°
RAAN
307.9633°
Arg. of periapsis
74.3261°
True anomaly
46.52021°
Mean anomaly
45.6268°
Eccentric anomaly
46.07266°
Mean motion
3.54896 °/min
Orbital period
101.44 mins
BSTAR
0.0019321
Loading maneuver chart data...
Loading SW <> Apogee altitude chart data...
|